Location: Bo?a Wola
(50.4192°N, 19.7966°E)
Time: 20:33:53
(UTC+00:00)

Cosmos 1455 Rocket - Pass Details

Date: 21 September 2024
Orbit: 601 x 623 km, 82.5° (Epoch: 13 October)

Event Time Altitude Azimuth Distance (km) Brightness Sun altitude
Exits shadow 01:08:07 18° 341° (NNW) 1,506 5.2 -29.4°
Drops below altitude 10° 01:09:32 10° 353° (N) 1,973 6.0 -29.2°
Sets 01:11:58 0° 4° (N) 2,886 7.1 -28.9°
